This is the latest recevied weather packets stored in our database for station/object K1RFS. If no packets are shown the sender has not sent any weather packets the latest 1 day(s).
| Time | Temp. | Humidity | Pressure | Rain* | Wind** | Luminosity | Snow |
|---|---|---|---|---|---|---|---|
| 1778051200 | 10° C | 72% | 996.9 hPa | 0 mm | 0.45 m/s, 156° | 0 W/m² | - |
| 1778050897 | 10° C | 72% | 996.9 hPa | 0 mm | 1.34 m/s, 75° | 0 W/m² | - |
| 1778050595 | 10° C | 71% | 996.8 hPa | 0 mm | 1.34 m/s, 179° | 0 W/m² | - |
| 1778050291 | 10° C | 72% | 997 hPa | 0 mm | 1.34 m/s, 74° | 0 W/m² | - |
| 1778049988 | 10° C | 72% | 997 hPa | 0 mm | 1.79 m/s, 148° | 0 W/m² | - |
| 1778049683 | 10.56° C | 70% | 996.8 hPa | 0 mm | 1.79 m/s, 174° | 0 W/m² | - |
| 1778049382 | 10.56° C | 66% | 997 hPa | 0 mm | 1.34 m/s, 158° | 0 W/m² | - |
| 1778049079 | 10.56° C | 65% | 996.9 hPa | 0 mm | 0.45 m/s, 180° | 0 W/m² | - |
| 1778048777 | 10.56° C | 64% | 996.8 hPa | 0 mm | 0 m/s | 0 W/m² | - |
| 1778048474 | 11.11° C | 62% | 996.8 hPa | 0 mm | 0.45 m/s, 174° | 0 W/m² | - |
| 1778048170 | 11.11° C | 59% | 996.6 hPa | 0 mm | 0.45 m/s, 177° | 0 W/m² | - |
| 1778047868 | 11.67° C | 58% | 996.8 hPa | 0 mm | 0.45 m/s, 172° | 0 W/m² | - |
| 1778047574 | 11.67° C | 57% | 996.6 hPa | 0 mm | 0.89 m/s, 174° | 0 W/m² | - |
| 1778047263 | 11.67° C | 59% | 996.4 hPa | 0 mm | 1.34 m/s, 144° | 0 W/m² | - |
| 1778046960 | 11.67° C | 59% | 996.4 hPa | 0 mm | 1.34 m/s, 192° | 0 W/m² | - |
| 1778046657 | 12.22° C | 54% | 996.5 hPa | 0 mm | 1.79 m/s, 340° | 0 W/m² | - |
| 1778046354 | 11.67° C | 52% | 996.5 hPa | 0 mm | 0.89 m/s, 234° | 0 W/m² | - |
| 1778046049 | 11.67° C | 55% | 996.2 hPa | 0 mm | 0.45 m/s, 191° | 0 W/m² | - |
| 1778045748 | 11.11° C | 57% | 996.5 hPa | 0 mm | 0.89 m/s, 190° | 0 W/m² | - |
| 1778045446 | 10.56° C | 61% | 996 hPa | 0 mm | 0.45 m/s, 185° | 0 W/m² | - |
| 1778045144 | 10° C | 62% | 996 hPa | 0 mm | 1.79 m/s, 262° | 0 W/m² | - |
| 1778044841 | 9.44° C | 63% | 995.8 hPa | 0 mm | 0 m/s | 0 W/m² | - |
| 1778044538 | 9.44° C | 64% | 995.8 hPa | 0 mm | 0 m/s | 0 W/m² | - |
| 1778044235 | 9.44° C | 63% | 996 hPa | 0 mm | 0.89 m/s, 173° | 0 W/m² | - |
| 1778043932 | 9.44° C | 62% | 996 hPa | 0 mm | 0 m/s | 0 W/m² | - |
* Rain latest hour (hover to see other rain measurements)
** Current wind speed in m/s (hover to see current wind gust speed)